Location: Recife
(8.0585°S, 34.8848°W)
Time: 11:07:03
(UTC-03:00)

Altair - Pass Details

Date: 15 April 2026
Orbit: 1501 x 1682 km, 47.2° (Epoch: 20 May)

Event Time Altitude Azimuth Distance (km) Brightness Sun altitude
Rises 22:52:32 0° 298° (WNW) 4,634 - -83.1°
Reaches altitude 10° 22:55:52 10° 290° (WNW) 3,648 - -83.8°
Maximum altitude 23:04:04 37° 226° (SW) 2,190 - -85.7°
Drops below altitude 10° 23:12:23 10° 161° (SSE) 3,690 - -87.3°
Sets 23:15:49 0° 153° (SSE) 4,693 - -87.8°
